Flag for Canada Weather past 2 weeks in Bathurst, New Brunswick, Canada

Now
34 °F

Drizzle. Fog.


Feels Like: 27 °F
Forecast: 33 / 41 °F
Wind: 8 mph from Northeast

Location: Bathurst Airport

Current Time: Apr 26, 2015 at 12:57:28 PM

Latest Report: Apr 26, 2015 at 12:00 PM


Visibility: 1 mi

Pressure: 29.68 "Hg

Humidity: 100%

Dew point: 34 °F

Location of BathurstLocation

Historic Weather in Bathurst — Graph

°F

Bathurst temperature yesterday

Maximum temperature yesterday: 39 °F (at 2:00 PM)
Minimum temperature yesterday: 32 °F (at 12:00 AM)
Average temperature yesterday: 35 °F

Past Weeks' High & Low Weather Summary

 TemperatureHumidityPressure
High63 °F (Apr 13, 7:00 PM)100% (Apr 21, 10:00 PM)30.40 "Hg (Apr 21, 10:00 PM)
Low21 °F (Apr 13, 7:00 AM)20% (Apr 15, 6:00 PM)29.30 "Hg (Apr 11, 11:00 AM)
Average37 °F68%29.90 "Hg
* Reported Apr 11 11:00 AM — Apr 26 11:00 AM, Bathurst, Weather by CustomWeather, © 2015

Note: Actual official high and low records may vary slightly from our data, if they occured in-between our weather recording intervals... More about our weather records

Advertising

Bathurst weather history for previous 24 hours

 ConditionsComfort  
Time TempWeatherWind HumidityBarometerVisibility
11:00 AM
Sun, Apr 26
36 °FDrizzle. Fog.12 mph93%29.67 "Hg4 mi
10:00 AM36 °FDrizzle. Fog.7 mph100%29.65 "Hg0 mi
9:54 AM36 °FDrizzle. Fog.8 mph100%29.65 "Hg0 mi
9:00 AM37 °FDrizzle. Fog.5 mph93%29.64 "Hg1 mi
8:00 AM36 °FFog.No wind100%29.62 "Hg1 mi
7:00 AM34 °FFog.No wind100%29.62 "Hg1 mi
6:00 AM32 °FIce fog.3 mph100%29.60 "Hg2 mi
5:00 AM32 °FIce fog.No wind100%29.58 "Hg1 mi
4:00 AM36 °FFog.2 mph100%29.59 "Hg3 mi
3:00 AM36 °FFog.2 mph93%29.59 "Hg3 mi
2:00 AM36 °FFog.2 mph93%29.59 "Hg3 mi
1:00 AM36 °FSprinkles. Fog.3 mph100%29.58 "Hg4 mi
12:00 AM36 °FSprinkles. Fog.5 mph100%29.59 "Hg4 mi
11:00 PM
Sat, Apr 25
36 °FSprinkles. Fog.5 mph100%29.60 "Hg4 mi
10:00 PM36 °FFog.No wind93%29.61 "Hg6 mi
9:00 PM37 °FOvercast.3 mph87%29.61 "Hg15 mi
8:00 PM39 °FPartly sunny.No wind81%29.60 "Hg15 mi
7:00 PM39 °FPartly sunny.No wind75%29.61 "Hg15 mi
6:00 PM37 °FMostly cloudy.5 mph81%29.62 "Hg15 mi
5:00 PM39 °FBroken clouds.8 mph75%29.62 "Hg15 mi
4:00 PM39 °FBroken clouds.7 mph75%29.62 "Hg15 mi
3:00 PM39 °FPartly sunny.3 mph75%29.64 "Hg15 mi
2:00 PM39 °FPartly sunny.3 mph75%29.65 "Hg15 mi
1:00 PM37 °FMostly cloudy.5 mph81%29.66 "Hg15 mi
12:00 PM37 °FOvercast.3 mph81%29.65 "Hg15 mi
Weather by CustomWeather, © 2015

See weather overviewHow to use our weather pages